Tracking 18784 objects as of 18-August-2017
HD Live streaming from Space Station
objects crossing your sky now

COSMOS 2251 DEB

Track COSMOS 2251 DEB now!
10-day predictions


NORAD ID: 34473
Int'l Code: 1993-036TS
Perigee: 728.9 km
Apogee: 767.7 km
Inclination: 74.0 °
Period: 99.6 minutes
Semi major axis: 7119 km
RCS: 0.0156 m2 (small)
Launch date: June 16, 1993
Source: Commonwealth of Independent States (former USSR) (CIS)
Launch site: PLESETSK MISSILE AND SPACE COMPLEX (PKMTR)

Note: This is SATELLITE DEBRIS
Your satellite tracking list
Your tracking list is empty





NASA's NSSDC Master Catalog

Two Line Element Set (TLE):
1 34473U 93036TS  17229.60123229 +.00000915 +00000-0 +26705-3 0  9996
2 34473 074.0323 064.1541 0027253 129.6366 286.0248 14.45267960445664
Source of the keplerian elements: AFSPC